Probability
6 6 13 10 23 23 26 39 35 32 35 39 48 48 45 45 52 55 58 61 55 61 71 74 71 68 65 55 61 61 65 65 68 65 58 65 68 68 68 65 55 58 71
6 13 19 16 16 19 19 35 35 32 32 42 45 45 45 45 55 52 52 52 55 55 61 61 68 65 58 48 52 58 58 55 58 55 55 52 58 71 65 65 58 45 68
10 10 16 13 19 26 29 29 32 29 35 39 39 35 39 48 42 48 45 48 58 55 61 65 61 55 48 48 48 52 52 48 45 42 32 23 45 61 58 65 68 77 65
10 16 16 19 23 26 29 29 29 29 32 35 39 39 39 42 39 32 45 48 52 58 52 55 45 48 42 42 42 45 45 45 39 26 3 3 19 48 55 52 55 52 55
10 10 19 23 26 23 26 32 26 26 29 29 35 39 39 35 39 35 39 39 35 39 42 35 39 39 35 32 42 39 35 35 32 10 0 0 10 35 55 52 48 42 42
10 13 16 23 19 23 26 29 29 26 29 32 32 39 32 29 35 35 35 35 32 32 26 26 29 39 32 35 26 26 29 23 13 0 0 0 3 35 39 39 35 35 35
10 13 13 23 19 26 26 32 29 32 32 35 35 32 29 35 26 32 35 29 26 32 26 29 29 23 23 23 23 23 19 19 0 0 0 0 10 39 39 42 32 32 29
13 13 13 16 16 26 29 19 29 29 32 32 29 26 26 26 32 26 29 23 23 19 16 16 23 26 26 16 16 19 16 10 0 0 0 3 23 32 29 32 32 35 35
13 13 13 16 16 26 32 29 26 35 35 32 32 29 32 32 32 39 39 29 19 16 19 13 10 16 16 13 16 16 13 10 0 0 3 3 19 23 29 26 26 29 29
6 10 10 10 10 10 10 29 29 26 29 32 35 29 26 26 23 29 26 26 16 19 16 16 13 13 13 16 13 13 13 0 0 0 0 13 23 23 26 26 29 29 19
6 6 6 10 10 10 10 10 13 26 26 16 19 26 10 3 3 6 16 13 16 13 13 13 13 13 10 13 13 10 3 0 0 0 3 13 16 19 19 23 23 19 19
6 6 6 3 10 10 10 3 6 10 6 6 3 3 3 0 0 0 13 13 16 13 10 13 10 3 3 0 0 0 0 0 0 0 3 16 13 10 13 13 16 23 23
6 6 6 3 6 3 3 3 3 6 3 3 0 0 0 0 0 0 0 3 3 3 3 3 3 0 0 0 0 0 0 0 0 0 0 13 16 13 10 13 13 16 19
3 6 6 3 6 3 0 0 3 3 3 3 0 0 0 0 0 0 0 0 0 0 0 0 0 0 0 0 0 0 0 0 0 0 3 13 13 10 13 13 13 13 13
3 3 6 3 0 0 0 0 0 3 3 3 0 0 0 0 0 0 0 0 0 0 0 0 0 0 0 0 0 0 0 0 0 0 0 13 13 13 16 13 13 10 13
0 0 3 3 0 0 0 0 0 0 3 0 0 0 0 0 0 0 0 0 0 0 0 0 0 0 0 0 0 0 0 0 0 0 0 0 6 16 10 10 13 10 6
0 0 3 3 0 0 0 0 0 0 0 0 0 0 0 0 0 0 0 0 0 0 0 0 0 0 0 0 0 0 0 0 0 0 0 0 0 3 3 3 6 6 6
3 0 0 3 0 0 0 0 3 0 0 0 0 0 0 0 0 0 0 0 0 0 0 0 0 0 0 0 0 0 0 0 0 0 0 0 0 0 0 0 0 0 0
0 3 0 0 3 0 0 0 0 0 0 0 0 0 0 0 0 0 0 0 0 0 0 0 0 0 0 0 0 0 0 0 0 0 0 0 0 0 0 0 3 0 0
0 0 0 3 3 3 0 0 0 0 0 0 0 0 0 0 0 0 0 0 0 0 0 0 0 0 0 0 0 0 0 0 0 0 0 0 0 0 0 0 0 0 0
0 0 0 0 3 3 0 0 0 0 0 0 0 0 0 0 0 0 0 0 0 0 0 0 0 0 0 0 0 0 0 0 0 0 0 0 0 0 0 0 0 0 0
0 0 0 0 0 3 3 0 0 0 0 0 0 0 0 0 0 0 0 0 0 0 0 0 0 0 0 0 0 0 0 0 0 0 0 0 0 0 0 0 0 0 0
0 0 0 0 0 0 0 0 0 0 0 0 0 0 0 0 0 0 0 0 0 0 0 0 0 0 0 0 0 0 0 0 0 0 0 0 0 0 0 0 0 0 0
0 0 0 0 0 0 0 0 0 0 0 0 0 0 0 0 0 0 0 0 0 0 0 0 0 0 0 0 0 0 0 0 0 0 0 0 0 0 0 0 0 0 0
0 0 0 0 0 0 0 0 0 0 0 0 0 0 0 0 0 0 0 0 0 0 0 0 0 0 0 0 0 0 0 0 0 0 0 0 0 0 0 0 0 0 0
0 0 0 0 0 0 0 0 0 0 0 0 0 0 0 0 0 0 0 0 0 0 0 0 0 0 0 0 0 0 0 0 0 0 0 0 0 0 0 0 0 0 0
Height
5862 5862 5861 5861 5860 5860 5860 5859 5859 5859 5859 5859 5858 5858 5858 5859 5858 5858 5858 5857 5857 5856 5857 5857 5859 5859 5860 5861 5862 5863 5864 5864 5865 5866 5866 5866 5866 5867 5869 5870 5872 5872 5873
5862 5861 5861 5860 5860 5860 5859 5859 5859 5858 5858 5858 5858 5858 5858 5858 5858 5857 5857 5857 5856 5856 5856 5857 5858 5859 5860 5860 5861 5862 5863 5864 5864 5865 5866 5866 5867 5867 5869 5870 5871 5872 5872
5861 5861 5861 5860 5859 5859 5859 5858 5858 5858 5858 5857 5857 5857 5857 5857 5857 5857 5857 5856 5856 5855 5856 5856 5857 5857 5858 5859 5860 5861 5862 5863 5863 5864 5865 5866 5867 5868 5869 5870 5870 5871 5872
5861 5860 5860 5859 5859 5858 5858 5858 5857 5857 5857 5857 5856 5856 5856 5856 5856 5856 5856 5856 5855 5855 5854 5854 5854 5854 5855 5857 5858 5859 5860 5861 5862 5863 5864 5865 5866 5867 5868 5869 5870 5870 5871
5860 5860 5859 5859 5858 5858 5857 5857 5856 5856 5856 5856 5855 5855 5855 5855 5855 5855 5855 5855 5854 5854 5853 5852 5850 5847 5849 5853 5856 5857 5858 5859 5861 5862 5863 5864 5865 5866 5867 5868 5868 5869 5870
5860 5859 5858 5858 5857 5857 5856 5856 5855 5855 5855 5855 5854 5854 5854 5854 5854 5854 5854 5854 5853 5853 5852 5850 5847 5843 5845 5851 5854 5856 5857 5858 5859 5860 5861 5862 5863 5864 5865 5866 5867 5868 5868
5859 5858 5858 5857 5856 5856 5855 5855 5854 5854 5854 5853 5853 5853 5853 5853 5853 5853 5853 5852 5852 5851 5851 5850 5848 5846 5848 5851 5853 5855 5856 5857 5858 5859 5860 5861 5862 5863 5864 5865 5865 5866 5867
5858 5857 5857 5856 5855 5855 5854 5854 5853 5853 5853 5852 5852 5852 5851 5851 5851 5851 5851 5851 5851 5850 5850 5849 5848 5848 5849 5851 5852 5853 5854 5855 5856 5857 5858 5859 5860 5861 5862 5862 5864 5864 5865
5856 5856 5855 5855 5854 5854 5853 5853 5852 5852 5851 5851 5851 5850 5850 5850 5850 5849 5849 5849 5849 5849 5848 5848 5848 5849 5849 5850 5851 5852 5853 5854 5854 5856 5857 5857 5858 5859 5860 5860 5861 5862 5863
5855 5855 5854 5854 5853 5853 5852 5851 5851 5850 5850 5850 5849 5849 5848 5848 5848 5847 5847 5847 5847 5847 5847 5847 5847 5847 5848 5848 5849 5850 5851 5852 5853 5854 5855 5855 5856 5857 5857 5858 5859 5860 5860
5854 5853 5853 5852 5852 5851 5851 5850 5849 5849 5848 5848 5847 5847 5847 5846 5846 5845 5845 5845 5845 5845 5845 5845 5845 5846 5846 5847 5847 5848 5849 5850 5851 5852 5853 5853 5854 5854 5855 5856 5856 5857 5858
5853 5852 5851 5851 5850 5850 5849 5848 5848 5847 5847 5846 5846 5845 5845 5844 5844 5843 5843 5843 5843 5843 5843 5844 5844 5844 5845 5845 5845 5846 5847 5847 5848 5849 5850 5851 5851 5852 5853 5853 5854 5855 5856
5851 5851 5850 5849 5849 5848 5847 5847 5846 5846 5845 5844 5844 5843 5843 5842 5842 5842 5841 5841 5841 5841 5842 5842 5842 5843 5843 5843 5843 5844 5845 5845 5846 5847 5847 5848 5849 5850 5850 5851 5851 5852 5853
5850 5849 5848 5848 5847 5846 5846 5845 5845 5844 5843 5843 5842 5841 5841 5840 5840 5840 5839 5839 5839 5840 5840 5840 5840 5841 5841 5841 5841 5842 5843 5843 5844 5844 5845 5846 5846 5847 5848 5848 5849 5849 5850
5849 5848 5847 5846 5846 5845 5844 5843 5843 5842 5841 5841 5840 5839 5839 5838 5838 5838 5838 5837 5837 5838 5838 5838 5838 5839 5839 5839 5840 5840 5841 5841 5841 5842 5843 5843 5844 5845 5845 5846 5846 5847 5848
5848 5847 5846 5845 5844 5844 5843 5842 5841 5840 5839 5839 5838 5838 5837 5837 5836 5836 5836 5836 5836 5836 5836 5836 5836 5836 5837 5837 5837 5838 5838 5839 5839 5840 5840 5841 5842 5842 5843 5843 5844 5844 5845
5847 5846 5845 5844 5843 5842 5841 5841 5840 5839 5838 5837 5837 5836 5836 5835 5835 5835 5835 5834 5834 5834 5834 5834 5834 5834 5834 5835 5835 5836 5836 5837 5837 5837 5838 5839 5839 5840 5840 5840 5841 5841 5842
5846 5845 5844 5843 5842 5841 5840 5839 5838 5837 5836 5836 5835 5835 5834 5834 5833 5833 5833 5833 5832 5832 5832 5832 5832 5832 5832 5833 5833 5833 5834 5834 5835 5835 5835 5836 5836 5837 5837 5837 5838 5838 5839
5845 5844 5843 5842 5841 5839 5839 5838 5837 5836 5835 5834 5834 5833 5833 5832 5832 5832 5831 5831 5831 5830 5830 5830 5830 5830 5830 5830 5831 5831 5832 5832 5832 5833 5833 5833 5834 5834 5834 5835 5835 5836 5836
5843 5842 5841 5840 5839 5838 5837 5836 5836 5835 5834 5833 5833 5832 5831 5830 5830 5830 5830 5829 5829 5829 5828 5828 5828 5828 5828 5828 5829 5829 5829 5830 5830 5830 5830 5831 5831 5831 5832 5832 5832 5833 5833
5841 5840 5839 5838 5838 5837 5836 5835 5834 5833 5832 5832 5831 5830 5830 5829 5828 5828 5828 5828 5827 5827 5827 5827 5826 5826 5827 5827 5827 5827 5827 5827 5828 5828 5828 5828 5829 5829 5829 5829 5830 5830 5831
5839 5838 5838 5837 5836 5835 5834 5833 5832 5832 5831 5830 5829 5829 5828 5827 5827 5826 5826 5826 5826 5825 5825 5825 5825 5825 5825 5825 5825 5825 5825 5826 5825 5826 5826 5826 5826 5826 5826 5827 5827 5828 5828
5837 5836 5836 5835 5834 5833 5833 5832 5831 5830 5829 5828 5828 5827 5826 5825 5825 5825 5824 5824 5824 5824 5823 5823 5823 5823 5823 5823 5823 5823 5823 5823 5823 5823 5823 5824 5824 5824 5824 5824 5825 5825 5825
5835 5834 5833 5833 5832 5831 5831 5830 5829 5828 5827 5826 5826 5825 5824 5824 5823 5823 5823 5823 5822 5822 5822 5822 5821 5821 5821 5821 5821 5821 5821 5821 5821 5821 5821 5821 5821 5822 5822 5822 5822 5822 5822
5832 5831 5831 5830 5830 5829 5828 5828 5827 5826 5826 5825 5824 5823 5822 5822 5822 5822 5821 5821 5821 5821 5820 5820 5820 5819 5819 5819 5819 5818 5818 5818 5818 5818 5818 5819 5819 5819 5819 5820 5820 5820 5820
5829 5829 5828 5827 5827 5826 5826 5825 5825 5824 5824 5823 5822 5821 5821 5820 5820 5820 5819 5819 5819 5819 5818 5818 5818 5817 5817 5817 5816 5816 5816 5816 5816 5816 5816 5816 5817 5817 5817 5817 5817 5817 5817
Wind_Speed
3 3 4 3 3 3 3 3 4 3 3 3 3 3 2 3 3 4 4 4 5 4 2 3 4 4 5 5 5 5 5 5 5 5 4 3 2 4 4 4 3 3 3
3 3 4 3 4 4 3 3 3 4 3 3 3 3 3 3 4 5 4 4 5 5 4 4 5 5 6 7 6 7 6 6 7 7 5 5 4 4 4 4 5 4 3
3 3 3 4 4 4 4 4 4 4 4 4 4 4 4 4 5 5 5 5 5 5 6 6 7 7 8 9 9 9 8 8 8 8 7 6 6 6 5 5 5 5 5
3 3 4 4 5 5 4 5 4 4 4 4 5 5 5 6 6 6 6 6 6 6 6 8 9 10 9 10 10 10 9 10 10 9 9 8 8 7 7 6 6 6 5
4 4 4 4 5 5 5 5 5 5 5 5 5 6 6 7 6 6 6 6 6 7 7 8 8 9 10 10 10 11 10 10 10 10 9 9 8 8 8 7 7 7 6
5 5 4 5 5 5 5 5 5 5 5 6 6 6 7 7 6 6 6 6 6 7 7 7 6 6 8 9 9 10 10 10 10 9 9 9 8 8 9 8 8 8 8
6 5 5 5 5 5 5 5 5 6 6 6 6 6 7 7 6 6 6 6 6 7 7 7 5 5 6 7 8 9 9 10 9 9 9 8 8 9 9 9 8 8 9
6 6 5 5 5 5 5 6 6 6 6 6 6 6 6 7 7 7 6 6 7 7 6 6 5 5 6 8 8 9 9 9 9 9 9 9 9 9 9 10 10 10 10
6 5 5 5 6 6 6 6 6 6 6 6 6 6 7 7 7 8 8 8 8 8 7 7 6 6 7 8 9 9 9 10 10 10 10 10 10 10 10 10 11 11 11
5 5 6 6 6 6 6 6 6 7 6 7 7 7 7 8 8 8 8 8 8 8 8 8 7 7 8 8 8 9 10 10 10 10 10 10 10 10 10 11 11 11 12
6 6 6 6 6 6 6 7 7 7 7 7 7 8 8 8 8 8 8 7 8 8 8 7 7 7 8 8 8 9 9 10 10 10 10 10 10 11 11 11 11 11 12
7 7 7 6 6 7 7 7 7 7 7 7 7 7 8 8 8 7 8 7 8 8 8 8 8 7 8 8 8 8 9 9 10 11 11 11 11 11 11 11 11 12 12
7 7 7 7 7 7 7 7 7 7 7 7 7 7 7 8 8 8 8 8 8 8 9 9 8 8 8 8 8 8 8 9 9 10 11 11 11 11 10 11 11 11 11
7 6 6 6 6 7 7 7 7 7 8 8 8 8 8 8 8 9 9 9 9 9 9 9 9 8 8 8 8 9 9 9 9 10 10 10 10 10 10 11 10 10 11
6 6 6 6 6 6 7 7 7 7 8 8 8 8 7 7 7 7 8 8 8 9 9 9 9 8 9 9 9 9 10 10 10 10 10 10 10 10 11 11 11 11 11
6 6 5 6 6 6 6 7 7 8 7 7 7 7 7 6 6 6 7 7 8 8 9 9 9 9 9 9 10 10 10 10 10 10 11 11 11 11 11 11 11 12 12
5 6 6 6 6 6 6 7 7 7 6 7 6 6 6 6 6 6 6 7 7 7 8 8 8 8 8 8 9 9 10 10 9 10 11 11 11 11 11 11 11 12 12
6 6 6 6 7 7 7 7 7 6 6 6 6 6 6 6 6 6 6 6 7 7 7 7 7 7 7 7 8 8 8 9 10 10 11 11 11 11 11 11 11 11 12
6 6 7 7 7 7 7 6 6 6 6 6 6 6 6 7 6 6 6 6 6 7 7 7 7 7 7 8 8 8 8 8 9 10 10 10 11 12 12 12 12 12 12
6 6 7 7 7 7 7 7 6 7 7 6 6 6 6 6 6 7 7 7 7 7 7 7 7 7 7 8 8 8 8 8 8 8 9 9 9 9 9 10 10 11 11
7 7 7 7 7 7 7 8 7 7 7 6 6 7 7 7 7 7 7 7 7 7 8 8 8 7 7 7 7 7 7 8 8 8 8 8 9 9 9 9 10 10 11
8 7 7 7 7 7 7 7 7 7 7 7 7 7 7 7 7 7 7 6 7 7 7 7 7 6 7 7 7 7 7 7 8 8 8 8 9 9 9 9 10 10 11
8 8 8 7 7 7 7 7 7 7 7 7 7 7 6 6 6 6 6 7 7 6 5 5 6 6 6 6 7 7 7 8 9 9 9 9 9 9 9 8 9 9 10
9 9 9 8 8 8 8 8 8 8 8 7 7 6 6 5 5 6 6 7 6 6 5 5 5 6 6 6 7 8 8 8 9 9 9 9 9 9 9 8 9 9 9
10 9 9 9 9 8 8 9 9 8 8 8 7 6 6 5 6 6 6 6 6 6 6 6 6 6 7 7 8 8 9 9 9 9 9 9 9 10 9 9 9 9 9
12 11 10 10 10 10 10 10 9 9 9 9 8 8 7 7 7 7 7 7 7 8 8 7 7 7 7 8 8 8 9 9 10 10 9 9 10 10 10 10 10 9 9
Wind_Direction
333 325 320 315 319 324 327 330 324 332 337 326 318 321 324 297 295 307 305 299 294 276 255 237 229 228 222 224 224 225 235 238 224 220 220 220 211 195 194 206 212 213 218
330 323 313 314 315 322 333 333 328 333 327 318 303 302 303 296 290 300 305 304 293 277 265 254 244 236 230 234 235 236 240 243 235 232 229 220 213 211 212 219 223 224 227
334 321 309 307 306 306 317 326 326 322 315 307 296 295 294 291 294 302 304 306 301 287 272 261 257 252 246 244 242 241 242 241 238 237 237 230 228 229 234 232 231 233 229
332 318 306 302 305 308 310 312 309 306 303 301 293 294 294 292 295 299 299 298 297 285 277 270 266 257 250 243 242 240 238 240 242 239 241 239 237 237 242 243 237 237 238
324 318 312 312 312 311 310 309 304 300 298 295 290 289 291 292 291 293 293 292 288 281 274 272 269 259 245 239 240 240 235 238 242 239 241 240 241 241 240 244 241 241 245
312 311 312 315 316 316 312 307 305 300 298 295 287 287 290 291 290 288 285 285 283 281 283 284 280 264 239 235 239 238 237 237 239 240 240 240 240 241 240 244 244 243 244
303 304 307 309 309 313 311 310 308 306 302 297 291 290 290 287 286 284 283 285 286 284 283 282 274 254 236 234 239 239 238 238 241 240 243 243 243 245 246 246 244 245 245
297 299 304 308 307 309 309 309 308 307 302 293 289 288 289 287 283 284 282 283 281 282 279 278 272 259 240 237 242 242 243 243 244 243 244 243 247 247 249 247 245 251 253
299 300 300 302 304 305 306 305 303 302 298 291 286 285 285 284 283 283 281 280 280 278 275 271 273 264 252 247 246 246 247 247 244 244 247 247 247 248 251 251 251 252 256
304 304 300 298 299 300 301 301 301 299 294 291 286 284 283 282 283 283 279 277 276 274 269 267 268 266 260 254 248 247 247 246 244 246 248 249 250 250 252 255 254 252 255
303 303 301 300 300 299 299 297 298 298 296 292 288 285 282 282 281 282 276 273 269 267 266 265 264 263 258 257 252 248 248 244 243 243 246 248 251 251 250 253 255 257 260
300 299 300 300 299 301 300 298 297 295 294 294 291 288 284 282 277 273 268 264 265 263 263 263 264 259 258 262 260 253 249 246 244 244 245 247 249 249 251 256 257 257 260
306 304 301 299 302 300 302 300 296 294 294 295 293 288 283 280 272 267 269 268 269 269 266 264 267 264 261 262 260 255 252 251 250 250 249 249 251 252 252 253 257 258 261
311 311 309 307 303 302 300 298 296 294 293 292 291 291 284 280 274 270 270 273 272 270 270 268 265 261 263 261 259 258 257 253 251 250 249 250 252 253 252 255 255 259 262
319 317 316 313 308 304 304 303 301 296 294 292 290 290 284 277 273 271 273 273 270 269 267 264 260 260 260 258 259 260 259 258 253 249 246 247 250 254 254 254 256 259 262
325 325 323 317 313 309 309 307 304 302 297 292 290 291 285 276 272 272 274 271 266 267 265 260 259 258 257 257 257 257 259 258 254 251 249 250 253 256 254 255 258 260 264
324 324 323 319 317 312 310 308 304 303 302 295 288 286 284 277 270 273 275 276 275 271 268 264 261 261 258 257 256 256 258 256 255 253 252 253 256 258 258 259 263 263 264
320 321 320 320 317 315 310 307 306 303 302 297 288 285 282 280 276 272 274 278 277 275 270 266 265 264 262 261 262 265 265 262 259 257 256 257 257 260 259 263 264 263 266
314 315 316 316 314 311 312 311 310 308 306 300 292 285 284 280 272 271 278 282 282 280 276 270 266 264 265 265 263 263 263 261 261 262 263 263 261 262 262 264 262 263 265
305 307 310 312 314 310 309 309 305 305 308 296 291 288 286 282 276 275 278 280 281 281 277 270 267 267 267 268 264 261 257 255 261 262 263 266 265 264 263 265 264 263 264
298 302 304 305 306 306 305 304 299 301 304 297 290 287 286 282 278 277 280 281 277 275 274 274 272 271 269 271 269 266 259 256 262 260 261 267 269 268 265 266 266 264 263
295 297 298 302 304 303 302 301 295 297 298 292 288 287 283 283 279 279 282 285 282 278 275 273 271 269 268 269 270 272 267 266 264 265 265 267 266 268 268 266 267 264 265
293 294 295 295 297 298 297 297 294 291 289 289 290 288 281 279 278 277 282 286 286 284 276 269 269 266 268 267 269 270 267 269 269 269 268 268 266 267 268 267 266 265 267
289 288 290 292 291 292 295 295 292 289 290 286 288 284 277 273 273 274 278 283 281 278 277 279 275 271 272 273 273 274 273 272 269 269 269 269 269 267 266 263 264 264 266
283 285 283 286 287 287 289 291 289 288 285 283 285 282 273 270 270 275 279 281 277 271 275 280 281 277 273 274 275 275 276 274 270 269 269 268 267 265 264 263 263 265 268
279 282 283 282 284 284 282 283 283 283 282 280 278 273 269 271 271 274 276 275 273 270 270 273 282 283 278 275 274 275 275 274 271 269 266 265 265 266 265 264 263 266 270